User: anonymous   Login
Location: Unspecified
(0.0000°N, 0.0000°E)
Time: 16:19:25
(UTC+00:00)
Language:

SR - Orbit

View from above orbital plane
View from above orbital plane
View from above satellite
View from above satellite

Ground track
Ground track

The orbit data is extracted from the following two-line orbital elements,

1    46U 60007B   20292.78217206 -.00000016  00000-0  20055-4 0  9995
2    46  66.6904  73.2975 0205405  37.6859 323.8435 14.49322973156970
Epoch (UTC): 18 October 2020 18:46:19
Eccentricity: 0.0205405
inclination: 66.6904°
perigee height: 582 km
apogee height: 874 km
right ascension of ascending node: 73.2975°
argument of perigee: 37.6859°
revolutions per day: 14.49322973
mean anomaly at epoch: 323.8435°
orbit number at epoch: 15697

The dashed part of the orbit path shows where the satellite is in the earth's shadow,  

DLR